This is the latest recevied weather packets stored in our database for station/object OM8AKX-4. If no packets are shown the sender has not sent any weather packets the latest 10 day(s).
| Time | Temp. | Humidity | Pressure | Rain* | Wind** | Luminosity | Snow |
|---|---|---|---|---|---|---|---|
| 1778073133 | 14.44° C | 65% | 872.9 hPa | - | - | - | - |
| 1778072232 | 14.44° C | 66% | 872.8 hPa | - | - | - | - |
| 1778071332 | 15° C | 65% | 872.9 hPa | - | - | - | - |
| 1778070432 | 15° C | 63% | 872.9 hPa | - | - | - | - |
| 1778069532 | 14.44° C | 67% | 872.8 hPa | - | - | - | - |
| 1778068632 | 13.89° C | 67% | 872.9 hPa | - | - | - | - |
| 1778067732 | 14.44° C | 68% | 873.1 hPa | - | - | - | - |
| 1778066832 | 13.89° C | 69% | 873.1 hPa | - | - | - | - |
| 1778065932 | 13.89° C | 68% | 872.8 hPa | - | - | - | - |
| 1778065032 | 14.44° C | 69% | 873 hPa | - | - | - | - |
| 1778064132 | 13.89° C | 71% | 872.8 hPa | - | - | - | - |
| 1778063232 | 13.89° C | 75% | 872.7 hPa | - | - | - | - |
| 1778062332 | 13.33° C | 76% | 872.9 hPa | - | - | - | - |
| 1778061432 | 13.33° C | 79% | 872.7 hPa | - | - | - | - |
| 1778060532 | 12.78° C | 80% | 872.6 hPa | - | - | - | - |
| 1778059631 | 12.78° C | 86% | 872.6 hPa | - | - | - | - |
| 1778058731 | 12.78° C | 81% | 872.4 hPa | - | - | - | - |
| 1778057831 | 12.22° C | 82% | 872.4 hPa | - | - | - | - |
| 1778056931 | 12.22° C | 83% | 872.3 hPa | - | - | - | - |
| 1778056031 | 12.22° C | 77% | 872.2 hPa | - | - | - | - |
| 1778055131 | 12.22° C | 75% | 872.1 hPa | - | - | - | - |
| 1778054231 | 12.22° C | 72% | 872 hPa | - | - | - | - |
| 1778053331 | 12.22° C | 70% | 872 hPa | - | - | - | - |
| 1778052431 | 12.78° C | 67% | 872.1 hPa | - | - | - | - |
| 1778051531 | 13.33° C | 66% | 871.9 hPa | - | - | - | - |
* Rain since midnight (hover to see other rain measurements)
** Current wind speed in m/s (hover to see current wind gust speed)